Torna al catalogo

ARIANE 5 R/B

AttivoHEO
NORAD 40942·ROCKET BODY·🇫🇷 France

Lanciato Sep 30, 2015 da Guiana Space Centre

Loading…

Prossimi Passaggi (prossime 24 ore)

TLE

AggiornatoSource: Space-Track

Epoca: Sep 14, 2026, 08:10 UTC

1 40942U 15054C   26257.34091986  .00015156  00000-0  96663-3 0  9997
2 40942   6.5356  26.3090 6811027   0.4081 359.8301  2.92795369101883

Traccia ARIANE 5 R/B in tempo reale con AllMySat

Download on the App Store